TimeCDT,TemperatureF,Dew PointF,Humidity,Sea Level PressureIn,VisibilityMPH,Wind Direction,Wind SpeedMPH,Gust SpeedMPH,PrecipitationIn,Events,Conditions,WindDirDegrees,DateUTC
12:53 AM,46.0,36.0,68,30.10,10.0,SSW,4.6,-,N/A,,Clear,200,2013-04-05 05:53:00
1:53 AM,44.1,36.0,73,30.09,10.0,Calm,Calm,-,N/A,,Clear,0,2013-04-05 06:53:00
2:53 AM,41.0,35.1,79,30.08,10.0,SW,4.6,-,N/A,,Clear,220,2013-04-05 07:53:00
3:53 AM,39.0,34.0,82,30.06,10.0,South,4.6,-,N/A,,Clear,190,2013-04-05 08:53:00
4:53 AM,39.0,33.1,79,30.05,10.0,SW,4.6,-,N/A,,Clear,220,2013-04-05 09:53:00
5:53 AM,39.0,34.0,82,30.04,10.0,SSW,4.6,-,N/A,,Clear,200,2013-04-05 10:53:00
6:53 AM,41.0,35.1,79,30.03,10.0,South,4.6,-,N/A,,Clear,190,2013-04-05 11:53:00
7:53 AM,41.0,36.0,82,30.02,10.0,South,5.8,-,N/A,,Clear,180,2013-04-05 12:53:00
8:53 AM,48.0,37.9,68,30.01,10.0,South,6.9,-,N/A,,Clear,180,2013-04-05 13:53:00
9:53 AM,57.0,37.0,47,29.98,10.0,South,9.2,21.9,N/A,,Clear,170,2013-04-05 14:53:00
10:53 AM,64.0,36.0,35,29.94,10.0,South,23.0,29.9,N/A,,Clear,190,2013-04-05 15:53:00
11:53 AM,66.0,36.0,33,29.91,10.0,South,23.0,28.8,N/A,,Clear,190,2013-04-05 16:53:00
12:53 PM,73.0,34.0,24,29.85,10.0,South,25.3,35.7,N/A,,Clear,190,2013-04-05 17:53:00
1:53 PM,73.9,30.0,20,29.79,10.0,South,28.8,43.7,N/A,,Clear,190,2013-04-05 18:53:00
2:53 PM,73.0,35.1,25,29.75,10.0,South,28.8,44.9,N/A,,Clear,180,2013-04-05 19:53:00
3:53 PM,75.9,36.0,23,29.72,10.0,South,23.0,36.8,N/A,,Clear,180,2013-04-05 20:53:00
4:53 PM,79.0,33.1,19,29.68,10.0,SSW,21.9,40.3,N/A,,Clear,200,2013-04-05 21:53:00
5:53 PM,73.9,37.9,27,29.65,10.0,South,25.3,34.5,N/A,,Clear,170,2013-04-05 22:53:00
6:53 PM,73.0,39.0,29,29.64,10.0,South,24.2,31.1,N/A,,Clear,170,2013-04-05 23:53:00
7:53 PM,69.1,37.9,32,29.62,10.0,South,21.9,36.8,N/A,,Clear,170,2013-04-06 00:53:00
8:53 PM,64.9,41.0,42,29.63,10.0,South,18.4,27.6,N/A,,Clear,180,2013-04-06 01:53:00
9:53 PM,62.1,42.1,48,29.64,10.0,South,19.6,26.5,N/A,,Clear,180,2013-04-06 02:53:00
10:53 PM,60.1,-9999,N/A,29.63,10.0,South,15.0,25.3,N/A,,Clear,190,2013-04-06 03:53:00
11:53 PM,60.1,-9999,N/A,29.62,10.0,SSW,9.2,20.7,N/A,,Clear,210,2013-04-06 04:53:00